Location: Sternwarte Stuttgart
(48.7824°N, 9.1965°E)
Time: 10:06:24
(UTC+00:00)

ISS - Visible Passes

Search period start: 20 June 2025 00:00
Search period end: 30 June 2025 00:00
Orbit: 415 x 418 km, 51.6° (Epoch: 19 June)

Date Brightness Start Highest point End Pass type
(mag) Time Alt. Az. Time Alt. Az. Time Alt. Az.
22 Jun -1.6 02:33:54 10° S 02:36:10 17° SE 02:38:26 10° E visible
23 Jun -1.2 01:46:56 10° SSE 01:47:50 11° SE 01:48:45 10° ESE visible
24 Jun -2.8 02:32:21 10° SW 02:35:28 36° SSE 02:38:34 10° E visible
25 Jun -2.2 01:45:14 16° S 01:46:59 24° SE 01:49:46 10° E visible
26 Jun -1.8 00:58:17 16° SE 00:58:34 16° SE 01:00:41 10° E visible
26 Jun -3.7 02:31:29 10° WSW 02:34:50 73° SSE 02:38:12 10° ENE visible
27 Jun -3.4 01:44:08 19° SW 01:46:14 50° SSE 01:49:30 10° ENE visible
28 Jun -2.9 00:57:03 31° S 00:57:40 33° SE 01:00:44 10° E visible
28 Jun -3.5 02:30:55 10° W 02:34:16 68° NNW 02:37:37 10° ENE visible
29 Jun -2.0 00:09:55 20° ESE 00:09:55 20° ESE 00:11:48 10° E visible
29 Jun -3.8 01:42:46 14° WSW 01:45:32 87° NNW 01:48:55 10° ENE visible
